PIMOHWEATHER Station Historical Data
Daily Summary for August 27, 2020 Units:  Metric    English   Both
Daily Weekly Monthly Yearly
  High: Low: Average:
Temperature: 34.0 °C 28.0 °C 30.5 °C
Dew Point: 26.0 °C 24.0 °C 25 °C
Humidity: 83% 60% 73%
Wind Speed: 44km/h 0km/h 16.2km/h
Wind Gust: 56km/h - -
Wind- - SSW
Pressure: 1013.1 hPa 1010.1 hPa -
Precipitation: 0.00 mm    
 
 
Tabular Data for August 27, 2020
Time Temperature Dew Point Pressure Wind Wind Speed Wind Gust Humidity Rainfall Rate (Hourly) solar
00:04 29.0 °C 25.0 °C 1013.1 hPa NNW 8 km/h 8 km/h 78% 0.00 mm 0.00 W/m2
00:09 29.0 °C 25.0 °C 1012.9 hPa NNW 11 km/h 12 km/h 78% 0.00 mm 0.00 W/m2
00:14 29.0 °C 25.0 °C 1013.0 hPa NNW 10 km/h 12 km/h 78% 0.00 mm 0.00 W/m2
00:19 29.0 °C 25.0 °C 1012.8 hPa NW 9 km/h 12 km/h 78% 0.00 mm 0.00 W/m2
00:24 29.0 °C 25.0 °C 1012.7 hPa NW 8 km/h 8 km/h 78% 0.00 mm 0.00 W/m2
00:29 29.0 °C 25.0 °C 1012.8 hPa NW 10 km/h 12 km/h 78% 0.00 mm 0.00 W/m2
00:34 29.0 °C 25.0 °C 1012.6 hPa NNW 9 km/h 12 km/h 78% 0.00 mm 0.00 W/m2
00:39 29.0 °C 25.0 °C 1012.5 hPa West 6 km/h 8 km/h 78% 0.00 mm 0.00 W/m2
00:44 29.0 °C 25.0 °C 1012.5 hPa West 4 km/h 4 km/h 77% 0.00 mm 0.00 W/m2
00:49 29.0 °C 25.0 °C 1012.5 hPa SW 11 km/h 12 km/h 77% 0.00 mm 0.00 W/m2
00:54 29.0 °C 25.0 °C 1012.4 hPa SW 10 km/h 16 km/h 77% 0.00 mm 0.00 W/m2
00:59 30.0 °C 25.0 °C 1012.3 hPa SW 6 km/h 8 km/h 77% 0.00 mm 0.00 W/m2
01:04 30.0 °C 25.0 °C 1012.3 hPa SW 10 km/h 12 km/h 78% 0.00 mm 0.00 W/m2
01:09 29.0 °C 25.0 °C 1012.1 hPa SSW 10 km/h 12 km/h 78% 0.00 mm 0.00 W/m2
01:14 29.0 °C 25.0 °C 1012.0 hPa SW 6 km/h 8 km/h 78% 0.00 mm 0.00 W/m2
01:19 29.0 °C 25.0 °C 1011.8 hPa SW 6 km/h 8 km/h 78% 0.00 mm 0.00 W/m2
01:24 29.0 °C 25.0 °C 1011.7 hPa West 4 km/h 8 km/h 77% 0.00 mm 0.00 W/m2
01:29 30.0 °C 25.0 °C 1011.6 hPa West 4 km/h 8 km/h 76% 0.00 mm 0.00 W/m2
01:39 29.0 °C 25.0 °C 1011.3 hPa NW 7 km/h 12 km/h 77% 0.00 mm 0.00 W/m2
01:44 29.0 °C 25.0 °C 1011.6 hPa WSW 10 km/h 12 km/h 77% 0.00 mm 0.00 W/m2
01:49 29.0 °C 24.0 °C 1011.3 hPa WSW 9 km/h 16 km/h 75% 0.00 mm 0.00 W/m2
01:54 29.0 °C 24.0 °C 1011.4 hPa West 9 km/h 12 km/h 75% 0.00 mm 0.00 W/m2
01:59 29.0 °C 24.0 °C 1011.3 hPa West 9 km/h 12 km/h 75% 0.00 mm 0.00 W/m2
02:04 29.0 °C 24.0 °C 1011.4 hPa NW 8 km/h 16 km/h 75% 0.00 mm 0.00 W/m2
02:09 29.0 °C 24.0 °C 1011.3 hPa NW 12 km/h 16 km/h 75% 0.00 mm 0.00 W/m2
02:14 29.0 °C 24.0 °C 1011.3 hPa WNW 7 km/h 12 km/h 75% 0.00 mm 0.00 W/m2
02:19 29.0 °C 24.0 °C 1011.1 hPa WNW 6 km/h 12 km/h 74% 0.00 mm 0.00 W/m2
02:24 29.0 °C 25.0 °C 1011.2 hPa NNW 10 km/h 12 km/h 75% 0.00 mm 0.00 W/m2
02:29 29.0 °C 25.0 °C 1011.2 hPa NNW 18 km/h 20 km/h 77% 0.00 mm 0.00 W/m2
02:34 29.0 °C 25.0 °C 1011.2 hPa NNW 13 km/h 16 km/h 79% 0.00 mm 0.00 W/m2
02:39 29.0 °C 25.0 °C 1011.4 hPa NNE 14 km/h 20 km/h 80% 0.00 mm 0.00 W/m2
02:44 29.0 °C 25.0 °C 1011.2 hPa North 16 km/h 20 km/h 80% 0.00 mm 0.00 W/m2
02:49 29.0 °C 25.0 °C 1011.2 hPa NNE 15 km/h 20 km/h 81% 0.00 mm 0.00 W/m2
02:54 28.0 °C 25.0 °C 1011.4 hPa NNE 13 km/h 16 km/h 82% 0.00 mm 0.00 W/m2
02:59 28.0 °C 25.0 °C 1011.2 hPa NE 8 km/h 12 km/h 82% 0.00 mm 0.00 W/m2
03:04 28.0 °C 25.0 °C 1011.1 hPa NNE 12 km/h 16 km/h 83% 0.00 mm 0.00 W/m2
03:09 28.0 °C 25.0 °C 1011.2 hPa NNE 12 km/h 12 km/h 83% 0.00 mm 0.00 W/m2
03:14 28.0 °C 25.0 °C 1011.1 hPa NNE 10 km/h 12 km/h 82% 0.00 mm 0.00 W/m2
03:19 28.0 °C 25.0 °C 1011.1 hPa NNE 8 km/h 12 km/h 82% 0.00 mm 0.00 W/m2
03:24 28.0 °C 25.0 °C 1011.2 hPa NNE 9 km/h 12 km/h 83% 0.00 mm 0.00 W/m2
03:29 28.0 °C 25.0 °C 1011.0 hPa NE 8 km/h 8 km/h 83% 0.00 mm 0.00 W/m2
03:34 28.0 °C 25.0 °C 1011.0 hPa NE 5 km/h 8 km/h 82% 0.00 mm 0.00 W/m2
03:39 28.0 °C 25.0 °C 1011.1 hPa NNE 12 km/h 16 km/h 82% 0.00 mm 0.00 W/m2
03:44 28.0 °C 25.0 °C 1011.1 hPa NNE 11 km/h 12 km/h 82% 0.00 mm 0.00 W/m2
03:49 28.0 °C 25.0 °C 1011.1 hPa NE 10 km/h 12 km/h 83% 0.00 mm 0.00 W/m2
03:54 28.0 °C 25.0 °C 1011.1 hPa NE 10 km/h 12 km/h 83% 0.00 mm 0.00 W/m2
03:59 28.0 °C 25.0 °C 1011.4 hPa NE 8 km/h 8 km/h 82% 0.00 mm 0.00 W/m2
04:04 28.0 °C 25.0 °C 1011.2 hPa NE 6 km/h 8 km/h 82% 0.00 mm 0.00 W/m2
04:09 28.0 °C 25.0 °C 1011.2 hPa NE 6 km/h 12 km/h 82% 0.00 mm 0.00 W/m2
04:14 28.0 °C 25.0 °C 1011.2 hPa NNE 9 km/h 12 km/h 82% 0.00 mm 0.00 W/m2
04:19 28.0 °C 25.0 °C 1011.4 hPa NNE 13 km/h 16 km/h 82% 0.00 mm 0.00 W/m2
04:24 28.0 °C 25.0 °C 1011.3 hPa NNE 18 km/h 20 km/h 83% 0.00 mm 0.00 W/m2
04:29 28.0 °C 25.0 °C 1011.3 hPa NNE 15 km/h 20 km/h 83% 0.00 mm 0.00 W/m2
04:34 28.0 °C 25.0 °C 1011.3 hPa NE 9 km/h 12 km/h 83% 0.00 mm 0.00 W/m2
04:39 28.0 °C 25.0 °C 1011.3 hPa NNE 13 km/h 16 km/h 83% 0.00 mm 0.00 W/m2
04:44 28.0 °C 25.0 °C 1011.1 hPa NE 11 km/h 16 km/h 83% 0.00 mm 0.00 W/m2
04:49 28.0 °C 25.0 °C 1011.1 hPa NE 8 km/h 8 km/h 83% 0.00 mm 0.00 W/m2
04:54 28.0 °C 25.0 °C 1011.1 hPa NNE 6 km/h 8 km/h 83% 0.00 mm 0.00 W/m2
04:59 28.0 °C 25.0 °C 1011.1 hPa North 4 km/h 8 km/h 83% 0.00 mm 0.00 W/m2
05:04 28.0 °C 25.0 °C 1011.2 hPa NE 8 km/h 8 km/h 83% 0.00 mm 0.00 W/m2
05:09 28.0 °C 25.0 °C 1011.2 hPa NNE 6 km/h 8 km/h 83% 0.00 mm 0.00 W/m2
05:14 28.0 °C 25.0 °C 1011.1 hPa NE 8 km/h 12 km/h 83% 0.00 mm 0.00 W/m2
05:19 28.0 °C 25.0 °C 1011.2 hPa NE 7 km/h 8 km/h 83% 0.00 mm 0.00 W/m2
05:24 28.0 °C 25.0 °C 1011.1 hPa NNE 7 km/h 8 km/h 83% 0.00 mm 0.00 W/m2
05:29 28.0 °C 25.0 °C 1010.9 hPa Calm   4 km/h 83% 0.00 mm 0.00 W/m2
05:34 28.0 °C 24.0 °C 1010.9 hPa Calm     82% 0.00 mm 0.00 W/m2
05:39 28.0 °C 25.0 °C 1011.0 hPa Calm   4 km/h 83% 0.00 mm 0.00 W/m2
05:44 28.0 °C 24.0 °C 1011.0 hPa Calm   4 km/h 82% 0.00 mm 1.22 W/m2
05:49 28.0 °C 24.0 °C 1010.8 hPa NNE 5 km/h 8 km/h 82% 0.00 mm 4.77 W/m2
05:54 28.0 °C 24.0 °C 1011.0 hPa NNE 1 km/h 4 km/h 82% 0.00 mm 10.39 W/m2
05:59 28.0 °C 25.0 °C 1010.9 hPa East 4 km/h 4 km/h 82% 0.00 mm 17.73 W/m2
06:04 28.0 °C 25.0 °C 1010.9 hPa East 3 km/h 4 km/h 82% 0.00 mm 25.94 W/m2
06:09 28.0 °C 25.0 °C 1011.0 hPa NE 6 km/h 8 km/h 82% 0.00 mm 32.42 W/m2
06:14 28.0 °C 25.0 °C 1011.0 hPa ENE 5 km/h 8 km/h 82% 0.00 mm 40.24 W/m2
06:19 28.0 °C 24.0 °C 1010.8 hPa ENE 4 km/h 4 km/h 81% 0.00 mm 46.73 W/m2
06:24 28.0 °C 25.0 °C 1011.1 hPa ENE 5 km/h 8 km/h 81% 0.00 mm 52.85 W/m2
06:29 28.0 °C 25.0 °C 1011.1 hPa East 2 km/h 4 km/h 80% 0.00 mm 58.48 W/m2
06:34 28.0 °C 25.0 °C 1011.1 hPa ENE 6 km/h 8 km/h 80% 0.00 mm 59.82 W/m2
06:39 29.0 °C 25.0 °C 1011.1 hPa East 2 km/h 4 km/h 79% 0.00 mm 67.65 W/m2
06:44 29.0 °C 25.0 °C 1011.1 hPa NE 5 km/h 8 km/h 79% 0.00 mm 72.42 W/m2
06:49 29.0 °C 25.0 °C 1011.2 hPa NE 6 km/h 12 km/h 79% 0.00 mm 87.59 W/m2
06:54 29.0 °C 25.0 °C 1011.2 hPa ENE 4 km/h 4 km/h 78% 0.00 mm 97.99 W/m2
06:59 29.0 °C 25.0 °C 1011.4 hPa NE 8 km/h 8 km/h 77% 0.00 mm 114.02 W/m2
07:04 30.0 °C 25.0 °C 1011.4 hPa NE 5 km/h 8 km/h 77% 0.00 mm 130.04 W/m2
07:09 30.0 °C 25.0 °C 1011.5 hPa NE 5 km/h 8 km/h 76% 0.00 mm 146.56 W/m2
07:14 30.0 °C 25.0 °C 1011.7 hPa ENE 5 km/h 8 km/h 75% 0.00 mm 154.39 W/m2
07:19 30.0 °C 25.0 °C 1011.7 hPa ENE 5 km/h 8 km/h 75% 0.00 mm 170.41 W/m2
07:24 30.0 °C 25.0 °C 1011.8 hPa ESE 3 km/h 4 km/h 75% 0.00 mm 195.98 W/m2
07:29 30.0 °C 25.0 °C 1011.8 hPa SSE 4 km/h 4 km/h 75% 0.00 mm 214.70 W/m2
07:34 30.0 °C 25.0 °C 1011.9 hPa East 3 km/h 4 km/h 74% 0.00 mm 150.47 W/m2
07:39 30.0 °C 25.0 °C 1012.0 hPa NE 7 km/h 8 km/h 74% 0.00 mm 340.46 W/m2
07:44 30.0 °C 25.0 °C 1012.1 hPa WSW 12 km/h 16 km/h 74% 0.00 mm 342.17 W/m2
07:49 30.0 °C 25.0 °C 1012.1 hPa NNW 19 km/h 20 km/h 75% 0.00 mm 161.73 W/m2
07:54 30.0 °C 25.0 °C 1012.0 hPa SW 15 km/h 20 km/h 75% 0.00 mm 138.73 W/m2
07:59 30.0 °C 25.0 °C 1012.1 hPa SSW 15 km/h 16 km/h 74% 0.00 mm 429.03 W/m2
08:04 31.0 °C 25.0 °C 1012.1 hPa SSW 10 km/h 16 km/h 73% 0.00 mm 500.11 W/m2
08:09 31.0 °C 25.0 °C 1012.0 hPa SSW 15 km/h 20 km/h 71% 0.00 mm 515.77 W/m2
08:14 31.0 °C 25.0 °C 1012.2 hPa South 8 km/h 12 km/h 69% 0.00 mm 518.82 W/m2
08:19 32.0 °C 26.0 °C 1012.3 hPa SSW 18 km/h 24 km/h 70% 0.00 mm 539.62 W/m2
08:24 31.0 °C 25.0 °C 1012.3 hPa West 7 km/h 12 km/h 70% 0.00 mm 586.48 W/m2
08:29 31.0 °C 25.0 °C 1012.3 hPa NW 10 km/h 12 km/h 69% 0.00 mm 622.45 W/m2
08:34 31.0 °C 25.0 °C 1012.5 hPa WNW 12 km/h 16 km/h 70% 0.00 mm 731.82 W/m2
08:39 31.0 °C 25.0 °C 1012.4 hPa West 6 km/h 8 km/h 69% 0.00 mm 614.25 W/m2
08:44 31.0 °C 25.0 °C 1012.3 hPa SW 10 km/h 16 km/h 69% 0.00 mm 713.95 W/m2
08:49 31.0 °C 25.0 °C 1012.5 hPa SW 18 km/h 20 km/h 70% 0.00 mm 727.41 W/m2
08:54 31.0 °C 24.0 °C 1012.4 hPa West 13 km/h 16 km/h 69% 0.00 mm 749.19 W/m2
08:59 31.0 °C 25.0 °C 1012.5 hPa WNW 9 km/h 12 km/h 67% 0.00 mm 674.56 W/m2
09:04 32.0 °C 25.0 °C 1012.6 hPa WNW 9 km/h 16 km/h 67% 0.00 mm 710.53 W/m2
09:09 32.0 °C 25.0 °C 1012.4 hPa WSW 16 km/h 20 km/h 68% 0.00 mm 760.44 W/m2
09:14 31.0 °C 25.0 °C 1012.5 hPa SW 21 km/h 24 km/h 68% 0.00 mm 753.10 W/m2
09:19 31.0 °C 25.0 °C 1012.5 hPa SW 16 km/h 20 km/h 68% 0.00 mm 863.69 W/m2
09:24 32.0 °C 25.0 °C 1012.3 hPa West 18 km/h 20 km/h 67% 0.00 mm 885.34 W/m2
09:29 32.0 °C 25.0 °C 1012.3 hPa SW 17 km/h 20 km/h 68% 0.00 mm 777.32 W/m2
09:34 31.0 °C 25.0 °C 1012.2 hPa SSW 21 km/h 28 km/h 69% 0.00 mm 899.66 W/m2
09:39 31.0 °C 25.0 °C 1012.1 hPa SW 19 km/h 28 km/h 70% 0.00 mm 879.72 W/m2
09:44 31.0 °C 25.0 °C 1012.2 hPa SW 20 km/h 24 km/h 71% 0.00 mm 893.54 W/m2
09:49 32.0 °C 25.0 °C 1012.2 hPa SW 13 km/h 20 km/h 69% 0.00 mm 920.46 W/m2
09:54 31.0 °C 25.0 °C 1012.0 hPa WSW 12 km/h 16 km/h 70% 0.00 mm 260.21 W/m2
09:59 31.0 °C 25.0 °C 1012.0 hPa WSW 15 km/h 24 km/h 70% 0.00 mm 897.95 W/m2
10:04 32.0 °C 25.0 °C 1011.9 hPa SSW 19 km/h 24 km/h 70% 0.00 mm 420.35 W/m2
10:09 31.0 °C 25.0 °C 1012.0 hPa SSW 19 km/h 28 km/h 70% 0.00 mm 930.00 W/m2
10:14 31.0 °C 25.0 °C 1011.9 hPa SSW 18 km/h 20 km/h 70% 0.00 mm 960.46 W/m2
10:19 32.0 °C 26.0 °C 1011.9 hPa WSW 20 km/h 28 km/h 70% 0.00 mm 838.98 W/m2
10:24 32.0 °C 25.0 °C 1011.9 hPa SW 15 km/h 20 km/h 69% 0.00 mm 856.35 W/m2
10:29 32.0 °C 25.0 °C 1011.9 hPa SW 13 km/h 16 km/h 67% 0.00 mm 883.14 W/m2
10:34 32.0 °C 25.0 °C 1011.9 hPa SW 22 km/h 28 km/h 66% 0.00 mm 812.43 W/m2
10:39 32.0 °C 25.0 °C 1012.1 hPa SE 22 km/h 28 km/h 66% 0.00 mm 850.60 W/m2
10:44 32.0 °C 25.0 °C 1011.9 hPa SSW 15 km/h 20 km/h 66% 0.00 mm 839.34 W/m2
10:49 32.0 °C 25.0 °C 1011.9 hPa SW 12 km/h 20 km/h 65% 0.00 mm 873.24 W/m2
10:54 33.0 °C 25.0 °C 1011.9 hPa WSW 12 km/h 20 km/h 65% 0.00 mm 883.63 W/m2
10:59 33.0 °C 25.0 °C 1011.7 hPa SW 13 km/h 20 km/h 64% 0.00 mm 908.34 W/m2
11:04 33.0 °C 25.0 °C 1011.6 hPa NW 24 km/h 28 km/h 64% 0.00 mm 889.75 W/m2
11:09 33.0 °C 25.0 °C 1011.6 hPa SW 21 km/h 28 km/h 66% 0.00 mm 884.00 W/m2
11:14 32.0 °C 25.0 °C 1011.6 hPa WSW 15 km/h 24 km/h 66% 0.00 mm 867.12 W/m2
11:19 33.0 °C 25.0 °C 1011.7 hPa SW 20 km/h 24 km/h 66% 0.00 mm 832.00 W/m2
11:24 32.0 °C 25.0 °C 1011.3 hPa SW 22 km/h 32 km/h 66% 0.00 mm 821.61 W/m2
11:29 33.0 °C 25.0 °C 1011.3 hPa WNW 15 km/h 16 km/h 64% 0.00 mm 820.26 W/m2
11:34 33.0 °C 25.0 °C 1011.3 hPa SSW 15 km/h 24 km/h 62% 0.00 mm 809.49 W/m2
11:39 33.0 °C 25.0 °C 1011.2 hPa WSW 24 km/h 28 km/h 62% 0.00 mm 883.14 W/m2
11:44 33.0 °C 25.0 °C 1011.1 hPa WSW 14 km/h 20 km/h 64% 0.00 mm 902.23 W/m2
11:49 33.0 °C 26.0 °C 1011.1 hPa WSW 17 km/h 24 km/h 65% 0.00 mm 950.92 W/m2
11:54 33.0 °C 25.0 °C 1011.1 hPa WSW 20 km/h 24 km/h 65% 0.00 mm 905.29 W/m2
11:59 32.0 °C 25.0 °C 1011.0 hPa SW 24 km/h 28 km/h 67% 0.00 mm 884.49 W/m2
12:04 32.0 °C 25.0 °C 1011.2 hPa WSW 19 km/h 24 km/h 67% 0.00 mm 884.98 W/m2
12:09 32.0 °C 25.0 °C 1011.0 hPa WSW 18 km/h 24 km/h 68% 0.00 mm 943.95 W/m2
12:14 33.0 °C 25.0 °C 1011.0 hPa West 15 km/h 24 km/h 65% 0.00 mm 959.97 W/m2
12:19 33.0 °C 25.0 °C 1010.9 hPa SW 27 km/h 40 km/h 67% 0.00 mm 925.22 W/m2
12:24 33.0 °C 25.0 °C 1011.0 hPa SW 21 km/h 32 km/h 67% 0.00 mm 949.94 W/m2
12:29 32.0 °C 25.0 °C 1011.1 hPa SSW 37 km/h 40 km/h 66% 0.00 mm 936.97 W/m2
12:34 32.0 °C 25.0 °C 1011.1 hPa SSW 39 km/h 53 km/h 67% 0.00 mm 979.05 W/m2
12:39 32.0 °C 25.0 °C 1010.9 hPa SSW 39 km/h 48 km/h 67% 0.00 mm 921.80 W/m2
12:44 32.0 °C 25.0 °C 1011.0 hPa SW 28 km/h 36 km/h 67% 0.00 mm 917.03 W/m2
12:49 33.0 °C 25.0 °C 1010.9 hPa SSW 38 km/h 48 km/h 64% 0.00 mm 846.69 W/m2
12:54 33.0 °C 25.0 °C 1010.8 hPa SSW 24 km/h 32 km/h 64% 0.00 mm 841.55 W/m2
12:59 33.0 °C 25.0 °C 1010.8 hPa SW 21 km/h 28 km/h 63% 0.00 mm 857.21 W/m2
13:04 33.0 °C 25.0 °C 1010.7 hPa SW 29 km/h 44 km/h 63% 0.00 mm 846.69 W/m2
13:09 33.0 °C 25.0 °C 1010.8 hPa SW 25 km/h 28 km/h 62% 0.00 mm 869.32 W/m2
13:14 33.0 °C 25.0 °C 1010.8 hPa SW 32 km/h 44 km/h 62% 0.00 mm 799.95 W/m2
13:19 33.0 °C 24.0 °C 1010.8 hPa WSW 32 km/h 40 km/h 61% 0.00 mm 812.92 W/m2
13:24 34.0 °C 25.0 °C 1010.9 hPa West 18 km/h 28 km/h 60% 0.00 mm 779.53 W/m2
13:29 34.0 °C 25.0 °C 1010.8 hPa SW 30 km/h 40 km/h 62% 0.00 mm 752.12 W/m2
13:34 34.0 °C 25.0 °C 1010.8 hPa SW 20 km/h 28 km/h 62% 0.00 mm 707.96 W/m2
13:39 34.0 °C 26.0 °C 1010.7 hPa SW 37 km/h 44 km/h 64% 0.00 mm 683.24 W/m2
13:44 33.0 °C 25.0 °C 1010.8 hPa SW 25 km/h 40 km/h 65% 0.00 mm 668.93 W/m2
13:49 33.0 °C 25.0 °C 1010.8 hPa SW 34 km/h 44 km/h 65% 0.00 mm 669.79 W/m2
13:54 33.0 °C 25.0 °C 1010.8 hPa SW 29 km/h 40 km/h 65% 0.00 mm 684.96 W/m2
13:59 33.0 °C 25.0 °C 1010.9 hPa SW 32 km/h 40 km/h 63% 0.00 mm 733.04 W/m2
14:04 33.0 °C 26.0 °C 1010.7 hPa WSW 34 km/h 40 km/h 65% 0.00 mm 733.04 W/m2
14:09 33.0 °C 25.0 °C 1010.7 hPa SW 31 km/h 40 km/h 64% 0.00 mm 673.70 W/m2
14:14 32.0 °C 24.0 °C 1010.7 hPa SW 34 km/h 40 km/h 63% 0.00 mm 654.13 W/m2
14:19 33.0 °C 25.0 °C 1010.6 hPa SW 33 km/h 40 km/h 65% 0.00 mm 641.53 W/m2
14:24 33.0 °C 25.0 °C 1010.6 hPa SW 27 km/h 36 km/h 64% 0.00 mm 634.19 W/m2
14:29 33.0 °C 25.0 °C 1010.6 hPa SW 37 km/h 53 km/h 66% 0.00 mm 592.96 W/m2
14:34 32.0 °C 25.0 °C 1010.6 hPa SW 30 km/h 40 km/h 66% 0.00 mm 587.70 W/m2
14:39 33.0 °C 25.0 °C 1010.5 hPa SW 27 km/h 40 km/h 64% 0.00 mm 496.69 W/m2
14:44 33.0 °C 25.0 °C 1010.4 hPa WSW 24 km/h 32 km/h 63% 0.00 mm 402.49 W/m2
14:49 33.0 °C 25.0 °C 1010.5 hPa WSW 28 km/h 36 km/h 64% 0.00 mm 429.40 W/m2
14:54 33.0 °C 25.0 °C 1010.5 hPa WSW 26 km/h 36 km/h 64% 0.00 mm 530.94 W/m2
14:59 33.0 °C 25.0 °C 1010.6 hPa SW 35 km/h 48 km/h 64% 0.00 mm 546.96 W/m2
15:04 32.0 °C 25.0 °C 1010.5 hPa SW 33 km/h 48 km/h 64% 0.00 mm 550.51 W/m2
15:09 33.0 °C 25.0 °C 1010.5 hPa SW 41 km/h 48 km/h 66% 0.00 mm 502.31 W/m2
15:14 33.0 °C 25.0 °C 1010.6 hPa SW 38 km/h 48 km/h 66% 0.00 mm 528.37 W/m2
15:19 33.0 °C 25.0 °C 1010.8 hPa SW 33 km/h 48 km/h 64% 0.00 mm 524.45 W/m2
15:24 33.0 °C 25.0 °C 1010.7 hPa SW 44 km/h 56 km/h 64% 0.00 mm 482.37 W/m2
15:29 33.0 °C 25.0 °C 1010.4 hPa SW 35 km/h 48 km/h 64% 0.00 mm 466.35 W/m2
15:34 32.0 °C 25.0 °C 1010.4 hPa SW 37 km/h 56 km/h 65% 0.00 mm 481.88 W/m2
15:39 32.0 °C 26.0 °C 1010.3 hPa SW 41 km/h 56 km/h 68% 0.00 mm 453.25 W/m2
15:44 33.0 °C 25.0 °C 1010.2 hPa SW 40 km/h 53 km/h 67% 0.00 mm 438.08 W/m2
15:49 33.0 °C 26.0 °C 1010.3 hPa SW 32 km/h 48 km/h 67% 0.00 mm 445.06 W/m2
15:54 33.0 °C 26.0 °C 1010.4 hPa SW 38 km/h 48 km/h 69% 0.00 mm 425.11 W/m2
15:59 32.0 °C 26.0 °C 1010.4 hPa SW 34 km/h 48 km/h 68% 0.00 mm 394.66 W/m2
16:04 32.0 °C 25.0 °C 1010.2 hPa SW 33 km/h 40 km/h 67% 0.00 mm 316.61 W/m2
16:09 32.0 °C 25.0 °C 1010.2 hPa WSW 32 km/h 44 km/h 67% 0.00 mm 300.09 W/m2
16:14 32.0 °C 26.0 °C 1010.2 hPa SW 33 km/h 44 km/h 67% 0.00 mm 291.03 W/m2
16:17 32.0 °C 25.0 °C 1010.3 hPa SW 20 km/h 28 km/h 67% 0.00 mm 246.39 W/m2
16:24 32.0 °C 26.0 °C 1010.3 hPa SSW 41 km/h 53 km/h 68% 0.00 mm 213.84 W/m2
16:29 32.0 °C 26.0 °C 1010.1 hPa SW 36 km/h 44 km/h 69% 0.00 mm 227.30 W/m2
16:34 32.0 °C 25.0 °C 1010.3 hPa SW 31 km/h 48 km/h 70% 0.00 mm 154.39 W/m2
16:39 32.0 °C 26.0 °C 1010.3 hPa SW 33 km/h 48 km/h 70% 0.00 mm 161.73 W/m2
16:44 32.0 °C 26.0 °C 1010.3 hPa WSW 28 km/h 36 km/h 70% 0.00 mm 132.73 W/m2
16:49 32.0 °C 26.0 °C 1010.4 hPa SW 25 km/h 32 km/h 70% 0.00 mm 102.27 W/m2
16:54 31.0 °C 25.0 °C 1010.4 hPa SW 37 km/h 44 km/h 71% 0.00 mm 96.27 W/m2
16:59 31.0 °C 25.0 °C 1010.6 hPa SW 36 km/h 53 km/h 71% 0.00 mm 91.87 W/m2
17:04 31.0 °C 25.0 °C 1010.4 hPa SW 32 km/h 40 km/h 71% 0.00 mm 94.07 W/m2
17:09 31.0 °C 25.0 °C 1010.3 hPa SSW 26 km/h 32 km/h 72% 0.00 mm 90.16 W/m2
17:14 31.0 °C 25.0 °C 1010.4 hPa SW 35 km/h 48 km/h 72% 0.00 mm 55.41 W/m2
17:19 31.0 °C 25.0 °C 1010.5 hPa SW 20 km/h 24 km/h 71% 0.00 mm 45.02 W/m2
17:24 31.0 °C 25.0 °C 1010.4 hPa SW 23 km/h 28 km/h 71% 0.00 mm 41.59 W/m2
17:29 31.0 °C 25.0 °C 1010.6 hPa SW 29 km/h 36 km/h 71% 0.00 mm 39.02 W/m2
17:34 31.0 °C 25.0 °C 1010.7 hPa SW 24 km/h 36 km/h 72% 0.00 mm 35.48 W/m2
17:39 31.0 °C 26.0 °C 1010.6 hPa SW 23 km/h 32 km/h 72% 0.00 mm 32.05 W/m2
17:44 31.0 °C 25.0 °C 1010.6 hPa SW 22 km/h 28 km/h 72% 0.00 mm 28.14 W/m2
17:49 31.0 °C 25.0 °C 1010.9 hPa WSW 21 km/h 28 km/h 71% 0.00 mm 25.07 W/m2
17:54 31.0 °C 25.0 °C 1010.9 hPa SW 22 km/h 28 km/h 72% 0.00 mm 18.60 W/m2
17:59 31.0 °C 25.0 °C 1011.0 hPa SW 20 km/h 28 km/h 72% 0.00 mm 13.82 W/m2
18:04 31.0 °C 25.0 °C 1011.1 hPa SW 23 km/h 28 km/h 73% 0.00 mm 8.56 W/m2
18:09 31.0 °C 25.0 °C 1011.2 hPa SW 30 km/h 40 km/h 73% 0.00 mm 5.14 W/m2
18:14 31.0 °C 25.0 °C 1011.2 hPa SW 29 km/h 36 km/h 73% 0.00 mm 1.22 W/m2
18:19 31.0 °C 25.0 °C 1011.2 hPa SW 30 km/h 40 km/h 73% 0.00 mm 0.00 W/m2
18:24 31.0 °C 25.0 °C 1011.3 hPa SW 32 km/h 44 km/h 74% 0.00 mm 0.00 W/m2
18:29 31.0 °C 25.0 °C 1011.2 hPa WSW 24 km/h 32 km/h 73% 0.00 mm 0.00 W/m2
18:34 31.0 °C 25.0 °C 1011.4 hPa SW 18 km/h 24 km/h 73% 0.00 mm 0.00 W/m2
18:39 31.0 °C 25.0 °C 1011.5 hPa WSW 20 km/h 28 km/h 72% 0.00 mm 0.00 W/m2
18:44 31.0 °C 25.0 °C 1011.5 hPa SW 16 km/h 20 km/h 72% 0.00 mm 0.00 W/m2
18:49 31.0 °C 25.0 °C 1011.7 hPa SW 23 km/h 32 km/h 71% 0.00 mm 0.00 W/m2
18:54 31.0 °C 25.0 °C 1011.7 hPa SW 20 km/h 24 km/h 71% 0.00 mm 0.00 W/m2
18:59 31.0 °C 25.0 °C 1011.9 hPa SW 21 km/h 24 km/h 71% 0.00 mm 0.00 W/m2
19:04 31.0 °C 25.0 °C 1012.1 hPa WSW 20 km/h 24 km/h 71% 0.00 mm 0.00 W/m2
19:09 31.0 °C 25.0 °C 1012.1 hPa West 10 km/h 16 km/h 72% 0.00 mm 0.00 W/m2
19:14 31.0 °C 25.0 °C 1012.2 hPa WNW 4 km/h 4 km/h 71% 0.00 mm 0.00 W/m2
19:19 31.0 °C 25.0 °C 1012.1 hPa West 6 km/h 8 km/h 71% 0.00 mm 0.00 W/m2
19:24 31.0 °C 25.0 °C 1012.2 hPa WSW 9 km/h 16 km/h 70% 0.00 mm 0.00 W/m2
19:29 31.0 °C 24.0 °C 1012.2 hPa SW 12 km/h 16 km/h 69% 0.00 mm 0.00 W/m2
19:34 31.0 °C 24.0 °C 1012.3 hPa SSE 12 km/h 16 km/h 68% 0.00 mm 0.00 W/m2
19:39 31.0 °C 24.0 °C 1012.4 hPa WSW 11 km/h 16 km/h 68% 0.00 mm 0.00 W/m2
19:44 31.0 °C 24.0 °C 1012.4 hPa West 10 km/h 16 km/h 68% 0.00 mm 0.00 W/m2
19:49 31.0 °C 24.0 °C 1012.6 hPa WNW 9 km/h 16 km/h 68% 0.00 mm 0.00 W/m2
19:54 31.0 °C 24.0 °C 1012.6 hPa West 8 km/h 12 km/h 69% 0.00 mm 0.00 W/m2
19:59 31.0 °C 24.0 °C 1012.3 hPa West 10 km/h 16 km/h 69% 0.00 mm 0.00 W/m2
20:04 31.0 °C 24.0 °C 1012.5 hPa SW 12 km/h 16 km/h 69% 0.00 mm 0.00 W/m2
20:09 30.0 °C 25.0 °C 1012.5 hPa WSW 14 km/h 20 km/h 71% 0.00 mm 0.00 W/m2
20:14 30.0 °C 25.0 °C 1012.4 hPa SW 12 km/h 16 km/h 71% 0.00 mm 0.00 W/m2
20:19 30.0 °C 25.0 °C 1012.4 hPa SW 15 km/h 20 km/h 73% 0.00 mm 0.00 W/m2
20:24 30.0 °C 25.0 °C 1012.6 hPa WSW 15 km/h 20 km/h 73% 0.00 mm 0.00 W/m2
20:29 30.0 °C 25.0 °C 1012.6 hPa WSW 14 km/h 16 km/h 73% 0.00 mm 0.00 W/m2
20:34 30.0 °C 25.0 °C 1012.7 hPa WSW 5 km/h 8 km/h 72% 0.00 mm 0.00 W/m2
20:39 30.0 °C 25.0 °C 1012.7 hPa SW 8 km/h 12 km/h 72% 0.00 mm 0.00 W/m2
20:44 30.0 °C 25.0 °C 1012.5 hPa WSW 16 km/h 24 km/h 72% 0.00 mm 0.00 W/m2
20:49 30.0 °C 25.0 °C 1012.6 hPa SW 9 km/h 12 km/h 72% 0.00 mm 0.00 W/m2
20:54 30.0 °C 25.0 °C 1012.6 hPa SW 11 km/h 16 km/h 73% 0.00 mm 0.00 W/m2
20:59 30.0 °C 25.0 °C 1012.7 hPa SW 15 km/h 20 km/h 73% 0.00 mm 0.00 W/m2
21:04 30.0 °C 25.0 °C 1012.7 hPa WSW 15 km/h 16 km/h 73% 0.00 mm 0.00 W/m2
21:09 30.0 °C 25.0 °C 1012.8 hPa SW 14 km/h 16 km/h 74% 0.00 mm 0.00 W/m2
21:14 30.0 °C 25.0 °C 1012.6 hPa SW 13 km/h 16 km/h 74% 0.00 mm 0.00 W/m2
21:19 30.0 °C 25.0 °C 1012.6 hPa WSW 18 km/h 20 km/h 74% 0.00 mm 0.00 W/m2
21:24 30.0 °C 25.0 °C 1012.6 hPa SW 21 km/h 24 km/h 74% 0.00 mm 0.00 W/m2
21:29 30.0 °C 25.0 °C 1012.7 hPa WSW 17 km/h 24 km/h 74% 0.00 mm 0.00 W/m2
21:34 30.0 °C 25.0 °C 1012.9 hPa SW 14 km/h 16 km/h 75% 0.00 mm 0.00 W/m2
21:39 30.0 °C 25.0 °C 1012.8 hPa WSW 13 km/h 16 km/h 75% 0.00 mm 0.00 W/m2
21:44 30.0 °C 25.0 °C 1012.9 hPa SW 12 km/h 16 km/h 75% 0.00 mm 0.00 W/m2
21:49 30.0 °C 25.0 °C 1012.8 hPa SW 12 km/h 20 km/h 75% 0.00 mm 0.00 W/m2
21:54 30.0 °C 25.0 °C 1012.9 hPa SW 10 km/h 16 km/h 75% 0.00 mm 0.00 W/m2
21:59 30.0 °C 25.0 °C 1012.8 hPa SW 12 km/h 12 km/h 75% 0.00 mm 0.00 W/m2
22:04 30.0 °C 25.0 °C 1012.7 hPa SW 12 km/h 20 km/h 75% 0.00 mm 0.00 W/m2
22:09 30.0 °C 25.0 °C 1012.7 hPa SW 7 km/h 8 km/h 75% 0.00 mm 0.00 W/m2
22:14 30.0 °C 25.0 °C 1012.7 hPa WSW 8 km/h 12 km/h 75% 0.00 mm 0.00 W/m2
22:19 30.0 °C 25.0 °C 1012.6 hPa SW 13 km/h 16 km/h 75% 0.00 mm 0.00 W/m2
22:24 30.0 °C 25.0 °C 1012.4 hPa WSW 10 km/h 12 km/h 75% 0.00 mm 0.00 W/m2
22:29 30.0 °C 25.0 °C 1012.4 hPa West 8 km/h 12 km/h 75% 0.00 mm 0.00 W/m2
22:34 30.0 °C 25.0 °C 1012.4 hPa SW 13 km/h 16 km/h 75% 0.00 mm 0.00 W/m2
22:39 30.0 °C 25.0 °C 1012.7 hPa West 6 km/h 12 km/h 75% 0.00 mm 0.00 W/m2
22:44 30.0 °C 25.0 °C 1012.8 hPa SW 11 km/h 20 km/h 75% 0.00 mm 0.00 W/m2
22:49 30.0 °C 25.0 °C 1012.5 hPa SW 10 km/h 24 km/h 75% 0.00 mm 0.00 W/m2
22:54 30.0 °C 25.0 °C 1012.6 hPa SW 11 km/h 12 km/h 75% 0.00 mm 0.00 W/m2
22:59 30.0 °C 25.0 °C 1012.6 hPa SSW 8 km/h 8 km/h 75% 0.00 mm 0.00 W/m2
23:04 30.0 °C 25.0 °C 1012.5 hPa SW 10 km/h 16 km/h 75% 0.00 mm 0.00 W/m2
23:09 30.0 °C 25.0 °C 1012.6 hPa WSW 10 km/h 16 km/h 75% 0.00 mm 0.00 W/m2
23:14 30.0 °C 25.0 °C 1012.6 hPa SW 10 km/h 16 km/h 75% 0.00 mm 0.00 W/m2
23:19 30.0 °C 25.0 °C 1012.6 hPa WSW 11 km/h 20 km/h 75% 0.00 mm 0.00 W/m2
23:24 30.0 °C 25.0 °C 1012.5 hPa WSW 8 km/h 12 km/h 75% 0.00 mm 0.00 W/m2
23:29 30.0 °C 25.0 °C 1012.5 hPa WSW 12 km/h 16 km/h 75% 0.00 mm 0.00 W/m2
23:34 30.0 °C 25.0 °C 1012.4 hPa SW 6 km/h 8 km/h 75% 0.00 mm 0.00 W/m2
23:39 30.0 °C 25.0 °C 1012.1 hPa WNW 13 km/h 20 km/h 75% 0.00 mm 0.00 W/m2
23:44 30.0 °C 25.0 °C 1012.1 hPa NW 8 km/h 12 km/h 74% 0.00 mm 0.00 W/m2
23:49 30.0 °C 25.0 °C 1012.2 hPa NW 14 km/h 20 km/h 73% 0.00 mm 0.00 W/m2
23:54 30.0 °C 24.0 °C 1012.1 hPa NW 14 km/h 16 km/h 73% 0.00 mm 0.00 W/m2
23:59 30.0 °C 24.0 °C 1011.9 hPa NNW 15 km/h 20 km/h 73% 0.00 mm 0.00 W/m2
PIMOHWEATHER Philippines
Compliments of Weather Underground - 2 mb